Adelanto, California, United States (92301)
Lat: 34.58N, Lon: 117.41W
Wx Zone: CAZ060
Local Info
Past Weather Observations for Monday, November 17, 2014

NOTE: This archive is for the closest National Weather Service station to Adelanto. Information may differ from the station used for current weather conditions.

Click here for Long-term Archive

Time Weather Temperature Dewpoint Humidity Pressure Winds Precip Visibility
23:55
Fair
39°F / 4°C °F / -18°C 18% 30.24 in
(1024 mb)
Calm - 10SM
23:35
Fair
37°F / 3°C °F / -18°C 20% 30.24 in
(1024 mb)
SW 5.8 mph
(SW 9 kph)
- 7SM
23:15
Fair
37°F / 3°C °F / -18°C 20% 30.24 in
(1024 mb)
SW 4.6 mph
(SW 7 kph)
- 10SM
22:55
Clear
37°F / 3°C -2°F / -19°C 18% 30.24 in
(1024 mb)
W 3.5 mph
(W 6 kph)
- 10SM
22:35
Clear
37°F / 3°C -2°F / -19°C 18% 30.24 in
(1024 mb)
SSW 5.8 mph
(SSW 9 kph)
- 10SM
22:15
Clear
39°F / 4°C -2°F / -19°C 17% 30.24 in
(1024 mb)
Calm - 10SM
21:55
Clear
37°F / 3°C -2°F / -19°C 18% 30.24 in
(1024 mb)
Calm - 10SM
21:35
Fair
39°F / 4°C -2°F / -19°C 17% 30.24 in
(1024 mb)
Calm - 10SM
21:15
Fair
41°F / 5°C -2°F / -19°C 16% 30.24 in
(1024 mb)
Calm - 10SM
20:55
Fair
39°F / 4°C -4°F / -20°C 16% 30.24 in
(1024 mb)
Calm - 10SM
20:35
Fair
45°F / 7°C -2°F / -19°C 14% 30.24 in
(1024 mb)
Calm - 10SM
20:15
Fair
43°F / 6°C -2°F / -19°C 15% 30.24 in
(1024 mb)
Calm - 10SM
19:55
Clear
45°F / 7°C -2°F / -19°C 14% 30.24 in
(1024 mb)
Calm - 10SM
19:35
Clear
45°F / 7°C -4°F / -20°C 13% 30.24 in
(1024 mb)
Calm - 10SM
19:15
Clear
45°F / 7°C -2°F / -19°C 14% 30.24 in
(1024 mb)
W 4.6 mph
(W 7 kph)
- 10SM
18:55
Clear
45°F / 7°C -2°F / -19°C 14% 30.24 in
(1024 mb)
Calm - 10SM
18:35
Clear
46°F / 8°C -2°F / -19°C 13% 30.24 in
(1024 mb)
Calm - 10SM
18:15
Clear
48°F / 9°C -2°F / -19°C 12% 30.24 in
(1024 mb)
Calm - 10SM
17:55
Clear
50°F / 10°C °F / -18°C 12% 30.24 in
(1024 mb)
NE 5.8 mph
(NE 9 kph)
- 10SM
17:35
Clear
50°F / 10°C -2°F / -19°C 11% 30.24 in
(1024 mb)
NE 8.1 mph
(NE 13 kph)
- 10SM
17:15
Clear
52°F / 11°C °F / -18°C 11% 30.24 in
(1024 mb)
NNE 6.9 mph
(NNE 11 kph)
- 10SM
16:55
Clear
54°F / 12°C °F / -18°C 11% 30.21 in
(1023 mb)
N 5.8 mph
(N 9 kph)
- 10SM
16:35
Partly Cloudy
55°F / 13°C °F / -18°C 10% 30.21 in
(1023 mb)
N 6.9 mph
(N 11 kph)
- 10SM
16:15
Partly Cloudy
55°F / 13°C °F / -18°C 10% 30.21 in
(1023 mb)
N 5.8 mph
(N 9 kph)
- 10SM
15:55
Clear
57°F / 14°C °F / -18°C 9% 30.24 in
(1024 mb)
N 8.1 mph
(N 13 kph)
- 10SM
15:35
Partly Cloudy
59°F / 15°C 1°F / -17°C 9% 30.24 in
(1024 mb)
NNE 9.2 mph
(NNE 15 kph)
- 10SM
15:15
Clear
59°F / 15°C 1°F / -17°C 9% 30.24 in
(1024 mb)
NE 11.5 mph
(NE 19 kph)
- 10SM
14:55
Clear
61°F / 16°C 1°F / -17°C 9% 30.24 in
(1024 mb)
NNE 11.5 mph
(NNE 19 kph)
- 10SM
14:35
Clear
61°F / 16°C 1°F / -17°C 9% 30.24 in
(1024 mb)
NNE 10.4 mph
(NNE 17 kph)
- 10SM
14:15
Clear
61°F / 16°C 3°F / -16°C 10% 30.21 in
(1023 mb)
NE 13.8 mph
(NE 22 kph)
- 10SM
13:55
Clear
61°F / 16°C 3°F / -16°C 10% 30.21 in
(1023 mb)
NE 15 mph
(NE 24 kph)
- 10SM
13:35
Clear
61°F / 16°C 1°F / -17°C 9% 30.24 in
(1024 mb)
NE 11.5 mph
(NE 19 kph)
- 10SM
13:15
Clear
61°F / 16°C 1°F / -17°C 9% 30.24 in
(1024 mb)
NE 13.8 mph
(NE 22 kph)
- 10SM
12:55
Clear
59°F / 15°C °F / -18°C 9% 30.24 in
(1024 mb)
NE 16.1 mph
(NE 26 kph)
- 10SM
12:35
Clear
59°F / 15°C °F / -18°C 9% 30.24 in
(1024 mb)
NNE 12.7 mph
(NNE 20 kph)
- 10SM
12:15
Fair
57°F / 14°C -2°F / -19°C 9% 30.27 in
(1025 mb)
NNE 12.7 mph
(NNE 20 kph)
- 10SM
11:55
Fair
57°F / 14°C -2°F / -19°C 9% 30.27 in
(1025 mb)
NNE 10.4 mph
(NNE 17 kph)
- 10SM
11:35
Clear
57°F / 14°C -2°F / -19°C 9% 30.27 in
(1025 mb)
N 11.5 mph
(N 19 kph)
- 10SM
11:15
Fair
55°F / 13°C -2°F / -19°C 9% 30.27 in
(1025 mb)
N 11.5 mph
(N 19 kph)
- 10SM
10:55
Fair
55°F / 13°C -2°F / -19°C 9% 30.3 in
(1026 mb)
N 8.1 mph
(N 13 kph)
- 10SM
10:35
Fair
54°F / 12°C -4°F / -20°C 9% 30.3 in
(1026 mb)
N 6.9 mph
(N 11 kph)
- 10SM
10:15
Fair
50°F / 10°C -6°F / -21°C 9% 30.3 in
(1026 mb)
NNW 3.5 mph
(NNW 6 kph)
- 10SM
09:55
Fair
48°F / 9°C -6°F / -21°C 10% 30.3 in
(1026 mb)
N 5.8 mph
(N 9 kph)
- 10SM
09:35
Fair
48°F / 9°C -6°F / -21°C 10% 30.3 in
(1026 mb)
N 4.6 mph
(N 7 kph)
- 10SM
09:15
Fair
46°F / 8°C -6°F / -21°C 11% 30.3 in
(1026 mb)
Calm - 10SM
08:55
Fair
45°F / 7°C -8°F / -22°C 11% 30.3 in
(1026 mb)
Calm - 10SM
08:35
Fair
43°F / 6°C -6°F / -21°C 12% 30.3 in
(1026 mb)
Calm - 10SM
08:15
Fair
43°F / 6°C -6°F / -21°C 12% 30.3 in
(1026 mb)
Calm - 10SM
07:55
Fair
41°F / 5°C -6°F / -21°C 13% 30.3 in
(1026 mb)
Calm - 10SM
07:35
Fair
37°F / 3°C -6°F / -21°C 15% 30.3 in
(1026 mb)
Calm - 10SM
07:15
Fair
37°F / 3°C -8°F / -22°C 14% 30.3 in
(1026 mb)
Calm - 10SM
06:55
Fair
34°F / 1°C -8°F / -22°C 16% 30.3 in
(1026 mb)
SSW 3.5 mph
(SSW 6 kph)
- 10SM
06:35
Fair
34°F / 1°C -6°F / -21°C 18% 30.3 in
(1026 mb)
Calm - 7SM
06:15
Fair
30°F / -1°C -6°F / -21°C 20% 30.3 in
(1026 mb)
Calm - 10SM
05:55
Fair
37°F / 3°C -8°F / -22°C 14% 30.3 in
(1026 mb)
Calm - 10SM
05:35
Fair
36°F / 2°C -6°F / -21°C 16% 30.3 in
(1026 mb)
Calm - 10SM
05:15
Fair
34°F / 1°C -6°F / -21°C 18% 30.3 in
(1026 mb)
Calm - 10SM
04:55
Fair
36°F / 2°C -8°F / -22°C 15% 30.3 in
(1026 mb)
Calm - 10SM
04:35
Fair
36°F / 2°C -8°F / -22°C 15% 30.27 in
(1025 mb)
Calm - 10SM
04:15
Fair
36°F / 2°C -6°F / -21°C 16% 30.27 in
(1025 mb)
Calm - 10SM
03:55
Fair
36°F / 2°C -6°F / -21°C 16% 30.3 in
(1026 mb)
Calm - 10SM
03:35
Fair
39°F / 4°C -6°F / -21°C 14% 30.27 in
(1025 mb)
Calm - 10SM
03:15
Fair
39°F / 4°C -6°F / -21°C 14% 30.3 in
(1026 mb)
Calm - 10SM
02:55
Fair
39°F / 4°C -4°F / -20°C 16% 30.3 in
(1026 mb)
Calm - 10SM
02:35
Fair
41°F / 5°C -4°F / -20°C 14% 30.3 in
(1026 mb)
Calm - 10SM
02:15
Fair
39°F / 4°C -6°F / -21°C 14% 30.3 in
(1026 mb)
Calm - 10SM
01:55
Fair
37°F / 3°C -6°F / -21°C 15% 30.3 in
(1026 mb)
Calm - 10SM
01:35
Fair
36°F / 2°C -6°F / -21°C 16% 30.3 in
(1026 mb)
Calm - 10SM
01:15
Fair
39°F / 4°C -6°F / -21°C 14% 30.3 in
(1026 mb)
Calm - 10SM
00:55
Fair
39°F / 4°C -6°F / -21°C 14% 30.3 in
(1026 mb)
Calm - 10SM
00:35
Fair
37°F / 3°C -6°F / -21°C 15% 30.3 in
(1026 mb)
Calm - 10SM
00:15
Fair
37°F / 3°C -8°F / -22°C 14% 30.3 in
(1026 mb)
Calm - 10SM
Time Weather Temperature Dewpoint Humidity Pressure Winds Precip Visibility


Weather for websites

WeatherForYou.com, LLC is not responsible for any damages or problems caused by this service. Current weather conditions are obtained from the closest station including government and personal stations which may have varying degrees of accuracy. Weather forecasts are derived from the NOAA NDFD. Like all things, this site belongs to Jesus Christ... He just trusts me to maintain it. If you have any questions or comments email webmaster@weatherforyou.com

Copyright © 2014, WeatherForYou.com LLC. All rights reserved.